Private Wetterstation Wechselburg
Wetterdaten: Donnerstag, 19.09.2013
Datum Zeit Temp. +2m Bodentemp. Temp.+5cm Temp. Wind Windchill X Diff Temp. Feuchte +2m Feuchte +5cm Sonnenschein Luftdruck Regen Wind Richtung Richtung Sonnenschein UV Taupunkt Windchill Windben
19.09.2013 00:00 9,5 C 20,2 C 9,9 C 9,4 C 9,3 C 0,0 C 82 % 82 % 0 % 1004,6 hPa 0,0 l/m 1,6 km/h (1 Bft) S 180 0 min 0,0 UV-I 6,6 C 9,3 C 2,3 km/h (1 Bft)
19.09.2013 00:05 9,5 C 20,2 C 9,7 C 9,4 C 9,2 C 0,0 C 82 % 82 % 0 % 1004,6 hPa 0,0 l/m 1,9 km/h (1 Bft) S 180 0 min 0,0 UV-I 6,6 C 9,2 C 2,7 km/h (1 Bft)
19.09.2013 00:10 9,4 C 20,2 C 9,7 C 9,3 C 9,1 C 0,0 C 82 % 82 % 0 % 1004,6 hPa 0,0 l/m 2,4 km/h (1 Bft) S-SW 202 0 min 0,0 UV-I 6,5 C 9,1 C 2,4 km/h (1 Bft)
19.09.2013 00:15 9,4 C 20,2 C 9,6 C 9,2 C 8,9 C 0,0 C 82 % 82 % 0 % 1004,6 hPa 0,0 l/m 2,6 km/h (1 Bft) W 270 0 min 0,0 UV-I 6,5 C 8,9 C 3,4 km/h (1 Bft)
19.09.2013 00:20 9,3 C 20,2 C 9,5 C 9,1 C 8,6 C 0,0 C 82 % 82 % 0 % 1004,6 hPa 0,0 l/m 2,4 km/h (1 Bft) W-SW 247 0 min 0,0 UV-I 6,4 C 8,6 C 4,3 km/h (1 Bft)
19.09.2013 00:25 9,2 C 20,2 C 9,5 C 8,9 C 8,4 C 0,0 C 82 % 82 % 0 % 1004,6 hPa 0,0 l/m 2,1 km/h (1 Bft) SW 225 0 min 0,0 UV-I 6,3 C 8,4 C 2,4 km/h (1 Bft)
19.09.2013 00:30 9,1 C 20,2 C 9,3 C 8,8 C 8,3 C 0,0 C 82 % 82 % 0 % 1004,6 hPa 0,0 l/m 2,1 km/h (1 Bft) S 180 0 min 0,0 UV-I 6,2 C 8,3 C 4,5 km/h (1 Bft)
19.09.2013 00:35 9,1 C 20,2 C 9,2 C 8,8 C 8,1 C 0,0 C 82 % 82 % 0 % 1004,8 hPa 0,0 l/m 2,1 km/h (1 Bft) W 270 0 min 0,0 UV-I 6,2 C 8,1 C 2,3 km/h (1 Bft)
19.09.2013 00:40 8,9 C 20,2 C 9,2 C 8,6 C 7,9 C 0,0 C 83 % 82 % 0 % 1004,8 hPa 0,0 l/m 1,9 km/h (1 Bft) S 180 0 min 0,0 UV-I 6,2 C 7,9 C 4,7 km/h (1 Bft)
19.09.2013 00:45 8,8 C 20,2 C 9,1 C 8,5 C 7,8 C 0,0 C 83 % 82 % 0 % 1004,8 hPa 0,0 l/m 1,8 km/h (1 Bft) W 270 0 min 0,0 UV-I 6,1 C 7,8 C 0,0 km/h (0 Bft)
19.09.2013 00:50 8,7 C 20,2 C 9,0 C 8,4 C 7,7 C 0,0 C 83 % 82 % 0 % 1004,8 hPa 0,0 l/m 1,3 km/h (1 Bft) S 180 0 min 0,0 UV-I 6,0 C 7,7 C 0,0 km/h (0 Bft)
19.09.2013 00:55 8,5 C 20,2 C 8,8 C 8,1 C 7,4 C 0,0 C 83 % 82 % 0 % 1005,1 hPa 0,0 l/m 0,3 km/h (0 Bft) W-SW 247 0 min 0,0 UV-I 5,8 C 7,4 C 0,0 km/h (0 Bft)
19.09.2013 01:00 8,4 C 20,2 C 8,9 C 8,1 C 7,4 C 0,0 C 83 % 82 % 0 % 1005,1 hPa 0,0 l/m 1,0 km/h (0 Bft) W-SW 247 0 min 0,0 UV-I 5,7 C 7,4 C 0,0 km/h (0 Bft)
19.09.2013 01:05 8,3 C 20,2 C 8,8 C 8,0 C 7,3 C 0,0 C 84 % 83 % 0 % 1005,1 hPa 0,0 l/m 1,1 km/h (1 Bft) W-SW 247 0 min 0,0 UV-I 5,8 C 7,3 C 2,9 km/h (1 Bft)
19.09.2013 01:10 8,3 C 20,3 C 8,7 C 8,0 C 7,3 C 0,0 C 84 % 83 % 0 % 1005,1 hPa 0,0 l/m 1,0 km/h (0 Bft) W-SW 247 0 min 0,0 UV-I 5,8 C 7,3 C 1,6 km/h (1 Bft)
19.09.2013 01:15 8,0 C 20,3 C 8,6 C 7,7 C 7,1 C 0,0 C 84 % 82 % 0 % 1005,3 hPa 0,0 l/m 0,6 km/h (0 Bft) SW 225 0 min 0,0 UV-I 5,5 C 7,1 C 1,9 km/h (1 Bft)
19.09.2013 01:20 7,9 C 20,3 C 8,6 C 7,6 C 7,1 C 0,0 C 84 % 82 % 0 % 1005,3 hPa 0,0 l/m 0,8 km/h (0 Bft) W-SW 247 0 min 0,0 UV-I 5,4 C 7,1 C 5,0 km/h (1 Bft)
19.09.2013 01:25 7,9 C 20,3 C 8,6 C 7,6 C 7,1 C 0,0 C 84 % 83 % 0 % 1005,3 hPa 0,0 l/m 0,8 km/h (0 Bft) W 270 0 min 0,0 UV-I 5,4 C 7,1 C 0,0 km/h (0 Bft)
19.09.2013 01:30 7,7 C 20,3 C 8,6 C 7,5 C 7,1 C 0,0 C 85 % 83 % 0 % 1005,3 hPa 0,0 l/m 0,8 km/h (0 Bft) S 180 0 min 0,0 UV-I 5,3 C 7,1 C 0,0 km/h (0 Bft)
19.09.2013 01:35 7,6 C 20,3 C 8,5 C 7,4 C 7,1 C 0,0 C 85 % 83 % 0 % 1005,7 hPa 0,0 l/m 1,1 km/h (1 Bft) SW 225 0 min 0,0 UV-I 5,2 C 7,1 C 1,6 km/h (1 Bft)
19.09.2013 01:40 7,5 C 20,3 C 8,5 C 7,4 C 7,1 C 0,0 C 85 % 83 % 0 % 1005,7 hPa 0,0 l/m 0,6 km/h (0 Bft) S-SW 202 0 min 0,0 UV-I 5,1 C 7,1 C 0,0 km/h (0 Bft)
19.09.2013 01:45 7,5 C 20,3 C 8,5 C 7,3 C 7,0 C 0,0 C 85 % 83 % 0 % 1005,7 hPa 0,0 l/m 0,5 km/h (0 Bft) SW 225 0 min 0,0 UV-I 5,1 C 7,0 C 0,0 km/h (0 Bft)
19.09.2013 01:50 7,5 C 20,3 C 8,5 C 7,3 C 7,0 C 0,0 C 86 % 83 % 0 % 1005,7 hPa 0,0 l/m 0,6 km/h (0 Bft) S 180 0 min 0,0 UV-I 5,3 C 7,0 C 0,0 km/h (0 Bft)
19.09.2013 01:55 7,3 C 20,4 C 8,4 C 7,2 C 7,0 C 0,0 C 86 % 83 % 0 % 1006,1 hPa 0,0 l/m 0,5 km/h (0 Bft) O-SO 112 0 min 0,0 UV-I 5,1 C 7,0 C 0,0 km/h (0 Bft)
19.09.2013 02:00 7,3 C 20,4 C 8,3 C 7,1 C 6,8 C 0,0 C 86 % 83 % 0 % 1006,1 hPa 0,0 l/m 0,3 km/h (0 Bft) O-NO 67 0 min 0,0 UV-I 5,1 C 6,8 C 1,6 km/h (1 Bft)
19.09.2013 02:05 7,1 C 20,4 C 8,1 C 7,0 C 6,8 C 0,0 C 85 % 83 % 0 % 1006,1 hPa 0,0 l/m 0,2 km/h (0 Bft) O 90 0 min 0,0 UV-I 4,8 C 6,8 C 1,6 km/h (1 Bft)
19.09.2013 02:10 7,1 C 20,5 C 8,0 C 7,0 C 6,7 C 0,0 C 86 % 83 % 0 % 1006,1 hPa 0,0 l/m 0,2 km/h (0 Bft) O 90 0 min 0,0 UV-I 4,9 C 6,7 C 0,0 km/h (0 Bft)
19.09.2013 02:15 6,8 C 20,4 C 7,9 C 6,7 C 6,5 C 0,0 C 86 % 83 % 0 % 1005,8 hPa 0,0 l/m 0,0 km/h (0 Bft) SW 225 0 min 0,0 UV-I 4,6 C 6,5 C 0,0 km/h (0 Bft)
19.09.2013 02:20 6,7 C 20,5 C 7,9 C 6,6 C 6,4 C 0,0 C 86 % 83 % 0 % 1005,8 hPa 0,0 l/m 0,0 km/h (0 Bft) O 90 0 min 0,0 UV-I 4,5 C 6,4 C 0,0 km/h (0 Bft)
19.09.2013 02:25 6,7 C 20,4 C 7,8 C 6,6 C 6,4 C 0,0 C 86 % 83 % 0 % 1005,8 hPa 0,0 l/m 0,2 km/h (0 Bft) O-SO 112 0 min 0,0 UV-I 4,5 C 6,4 C 0,0 km/h (0 Bft)
19.09.2013 02:30 6,7 C 20,4 C 7,9 C 6,6 C 6,5 C 0,0 C 87 % 83 % 0 % 1005,8 hPa 0,0 l/m 0,3 km/h (0 Bft) SO 135 0 min 0,0 UV-I 4,7 C 6,5 C 0,0 km/h (0 Bft)
19.09.2013 02:35 6,6 C 20,4 C 7,9 C 6,6 C 6,5 C 0,0 C 87 % 84 % 0 % 1006,2 hPa 0,0 l/m 0,3 km/h (0 Bft) O-SO 112 0 min 0,0 UV-I 4,6 C 6,5 C 0,0 km/h (0 Bft)
19.09.2013 02:40 6,6 C 20,4 C 7,8 C 6,5 C 6,4 C 0,0 C 87 % 84 % 0 % 1006,2 hPa 0,0 l/m 0,0 km/h (0 Bft) W 270 0 min 0,0 UV-I 4,6 C 6,4 C 0,0 km/h (0 Bft)
19.09.2013 02:45 6,5 C 20,4 C 7,7 C 6,5 C 6,4 C 0,0 C 87 % 84 % 0 % 1006,2 hPa 0,0 l/m 0,0 km/h (0 Bft) SO 135 0 min 0,0 UV-I 4,5 C 6,4 C 0,0 km/h (0 Bft)
19.09.2013 02:50 6,5 C 20,4 C 7,7 C 6,5 C 6,4 C 0,0 C 87 % 84 % 0 % 1006,2 hPa 0,0 l/m 0,2 km/h (0 Bft) NO 45 0 min 0,0 UV-I 4,5 C 6,4 C 0,0 km/h (0 Bft)
19.09.2013 02:55 6,4 C 20,4 C 7,7 C 6,4 C 6,4 C 0,0 C 87 % 84 % 0 % 1006,3 hPa 0,0 l/m 0,2 km/h (0 Bft) W 270 0 min 0,0 UV-I 4,4 C 6,4 C 1,8 km/h (1 Bft)
19.09.2013 03:00 6,4 C 20,3 C 7,8 C 6,4 C 6,4 C 0,0 C 87 % 84 % 0 % 1006,3 hPa 0,0 l/m 0,6 km/h (0 Bft) W 270 0 min 0,0 UV-I 4,4 C 6,4 C 0,0 km/h (0 Bft)
19.09.2013 03:05 6,4 C 20,3 C 7,8 C 6,6 C 6,6 C 0,2 C 87 % 84 % 0 % 1006,3 hPa 0,0 l/m 1,3 km/h (1 Bft) W 270 0 min 0,0 UV-I 4,4 C 6,6 C 5,3 km/h (1 Bft)
19.09.2013 03:10 6,4 C 20,3 C 8,0 C 6,6 C 6,6 C 0,2 C 87 % 84 % 0 % 1006,3 hPa 0,0 l/m 1,3 km/h (1 Bft) S-SW 202 0 min 0,0 UV-I 4,4 C 6,6 C 0,0 km/h (0 Bft)
19.09.2013 03:15 6,5 C 20,3 C 8,0 C 6,7 C 6,7 C 0,2 C 88 % 84 % 0 % 1006,6 hPa 0,0 l/m 0,8 km/h (0 Bft) S-SW 202 0 min 0,0 UV-I 4,7 C 6,7 C 1,6 km/h (1 Bft)
19.09.2013 03:20 6,4 C 20,4 C 7,8 C 6,6 C 6,6 C 0,2 C 87 % 84 % 0 % 1006,6 hPa 0,0 l/m 0,5 km/h (0 Bft) O-SO 112 0 min 0,0 UV-I 4,4 C 6,6 C 0,0 km/h (0 Bft)
19.09.2013 03:25 6,4 C 20,3 C 7,7 C 6,4 C 6,4 C 0,0 C 87 % 84 % 0 % 1006,6 hPa 0,0 l/m 0,2 km/h (0 Bft) O-NO 67 0 min 0,0 UV-I 4,4 C 6,4 C 0,0 km/h (0 Bft)
19.09.2013 03:30 6,3 C 20,4 C 7,6 C 6,4 C 6,4 C 0,1 C 87 % 84 % 0 % 1006,6 hPa 0,0 l/m 0,0 km/h (0 Bft) O 90 0 min 0,0 UV-I 4,3 C 6,4 C 0,0 km/h (0 Bft)
19.09.2013 03:35 6,3 C 20,4 C 7,6 C 6,3 C 6,3 C 0,0 C 87 % 84 % 0 % 1006,6 hPa 0,0 l/m 0,0 km/h (0 Bft) O-NO 67 0 min 0,0 UV-I 4,3 C 6,3 C 0,0 km/h (0 Bft)
19.09.2013 03:40 6,3 C 20,4 C 7,7 C 6,4 C 6,4 C 0,1 C 88 % 84 % 0 % 1006,6 hPa 0,0 l/m 0,0 km/h (0 Bft) O-NO 67 0 min 0,0 UV-I 4,5 C 6,4 C 0,0 km/h (0 Bft)
19.09.2013 03:45 6,2 C 20,4 C 7,6 C 6,5 C 6,5 C 0,3 C 88 % 84 % 0 % 1006,6 hPa 0,0 l/m 0,0 km/h (0 Bft) O 90 0 min 0,0 UV-I 4,4 C 6,5 C 0,0 km/h (0 Bft)
19.09.2013 03:50 6,2 C 20,4 C 7,8 C 6,6 C 6,6 C 0,4 C 88 % 84 % 0 % 1006,6 hPa 0,0 l/m 0,0 km/h (0 Bft) O-NO 67 0 min 0,0 UV-I 4,4 C 6,6 C 0,0 km/h (0 Bft)
19.09.2013 03:55 6,3 C 20,4 C 7,8 C 6,8 C 6,8 C 0,5 C 88 % 84 % 0 % 1007,5 hPa 0,0 l/m 0,0 km/h (0 Bft) O-NO 67 0 min 0,0 UV-I 4,5 C 6,8 C 0,0 km/h (0 Bft)
19.09.2013 04:00 6,3 C 20,3 C 7,8 C 6,7 C 6,7 C 0,4 C 88 % 84 % 0 % 1007,5 hPa 0,0 l/m 0,0 km/h (0 Bft) SO 135 0 min 0,0 UV-I 4,5 C 6,7 C 0,0 km/h (0 Bft)
19.09.2013 04:05 6,2 C 20,3 C 7,7 C 6,6 C 6,6 C 0,4 C 88 % 84 % 0 % 1007,5 hPa 0,0 l/m 0,0 km/h (0 Bft) O-SO 112 0 min 0,0 UV-I 4,4 C 6,6 C 0,0 km/h (0 Bft)
19.09.2013 04:10 6,1 C 20,3 C 7,7 C 6,6 C 6,6 C 0,5 C 88 % 85 % 0 % 1007,5 hPa 0,0 l/m 0,0 km/h (0 Bft) SW 225 0 min 0,0 UV-I 4,3 C 6,6 C 0,0 km/h (0 Bft)
19.09.2013 04:15 6,2 C 20,3 C 7,6 C 6,4 C 6,4 C 0,2 C 88 % 84 % 0 % 1006,8 hPa 0,0 l/m 0,0 km/h (0 Bft) O 90 0 min 0,0 UV-I 4,4 C 6,4 C 1,9 km/h (1 Bft)
19.09.2013 04:20 6,1 C 20,3 C 7,6 C 6,6 C 6,6 C 0,5 C 88 % 84 % 0 % 1006,8 hPa 0,0 l/m 0,2 km/h (0 Bft) O-SO 112 0 min 0,0 UV-I 4,3 C 6,6 C 0,0 km/h (0 Bft)
19.09.2013 04:25 6,1 C 20,3 C 7,7 C 6,6 C 6,6 C 0,5 C 88 % 85 % 0 % 1006,8 hPa 0,0 l/m 0,2 km/h (0 Bft) O-NO 67 0 min 0,0 UV-I 4,3 C 6,6 C 0,0 km/h (0 Bft)
19.09.2013 04:30 6,1 C 20,3 C 7,9 C 6,8 C 6,8 C 0,7 C 89 % 85 % 0 % 1006,8 hPa 0,0 l/m 0,0 km/h (0 Bft) O-NO 67 0 min 0,0 UV-I 4,4 C 6,8 C 0,0 km/h (0 Bft)
19.09.2013 04:35 6,3 C 20,3 C 7,8 C 6,8 C 6,8 C 0,5 C 89 % 85 % 0 % 1007,1 hPa 0,0 l/m 0,0 km/h (0 Bft) O 90 0 min 0,0 UV-I 4,6 C 6,8 C 0,0 km/h (0 Bft)
19.09.2013 04:40 6,3 C 20,3 C 7,9 C 6,9 C 6,9 C 0,6 C 89 % 85 % 0 % 1007,1 hPa 0,0 l/m 0,0 km/h (0 Bft) SW 225 0 min 0,0 UV-I 4,6 C 6,9 C 0,0 km/h (0 Bft)
19.09.2013 04:45 6,3 C 20,3 C 8,0 C 7,0 C 7,0 C 0,7 C 89 % 85 % 0 % 1007,1 hPa 0,0 l/m 0,5 km/h (0 Bft) S 180 0 min 0,0 UV-I 4,6 C 7,0 C 3,5 km/h (1 Bft)
19.09.2013 04:50 6,4 C 20,2 C 8,1 C 7,1 C 7,1 C 0,7 C 89 % 85 % 0 % 1007,1 hPa 0,0 l/m 1,1 km/h (1 Bft) NO 45 0 min 0,0 UV-I 4,7 C 7,1 C 2,7 km/h (1 Bft)
19.09.2013 04:55 6,5 C 20,2 C 8,3 C 7,4 C 7,4 C 0,9 C 89 % 85 % 0 % 1007,1 hPa 0,0 l/m 1,6 km/h (1 Bft) SW 225 0 min 0,0 UV-I 4,8 C 7,4 C 1,6 km/h (1 Bft)
19.09.2013 05:00 6,5 C 20,1 C 8,4 C 7,5 C 7,5 C 1,0 C 90 % 85 % 0 % 1007,1 hPa 0,0 l/m 1,3 km/h (1 Bft) W 270 0 min 0,0 UV-I 5,0 C 7,5 C 0,0 km/h (0 Bft)
19.09.2013 05:05 6,6 C 20,1 C 8,5 C 7,6 C 7,6 C 1,0 C 90 % 85 % 0 % 1007,1 hPa 0,0 l/m 1,8 km/h (1 Bft) W 270 0 min 0,0 UV-I 5,1 C 7,6 C 2,1 km/h (1 Bft)
19.09.2013 05:10 6,7 C 20,1 C 8,4 C 7,6 C 7,6 C 0,9 C 90 % 85 % 0 % 1007,1 hPa 0,0 l/m 1,8 km/h (1 Bft) W-SW 247 0 min 0,0 UV-I 5,2 C 7,6 C 4,2 km/h (1 Bft)
19.09.2013 05:15 6,8 C 20,1 C 8,5 C 7,8 C 7,8 C 1,0 C 90 % 85 % 0 % 1007,8 hPa 0,0 l/m 2,3 km/h (1 Bft) W-SW 247 0 min 0,0 UV-I 5,3 C 7,8 C 3,5 km/h (1 Bft)
19.09.2013 05:20 6,9 C 20,1 C 8,6 C 7,9 C 7,9 C 1,0 C 90 % 85 % 0 % 1007,8 hPa 0,0 l/m 3,2 km/h (1 Bft) SW 225 0 min 0,0 UV-I 5,4 C 7,9 C 7,9 km/h (2 Bft)
19.09.2013 05:25 6,9 C 20,1 C 8,7 C 8,0 C 8,0 C 1,1 C 90 % 85 % 0 % 1007,8 hPa 0,0 l/m 3,4 km/h (1 Bft) S-SO 157 0 min 0,0 UV-I 5,4 C 8,0 C 3,9 km/h (1 Bft)
19.09.2013 05:30 7,1 C 20,1 C 8,6 C 8,1 C 8,1 C 1,0 C 89 % 84 % 0 % 1007,8 hPa 0,0 l/m 3,4 km/h (1 Bft) S 180 0 min 0,0 UV-I 5,4 C 8,1 C 4,2 km/h (1 Bft)
19.09.2013 05:35 7,1 C 20,1 C 8,7 C 8,1 C 8,1 C 1,0 C 89 % 84 % 0 % 1007,5 hPa 0,0 l/m 3,1 km/h (1 Bft) S-SW 202 0 min 0,0 UV-I 5,4 C 8,1 C 5,5 km/h (1 Bft)
19.09.2013 05:40 7,1 C 20,1 C 8,7 C 8,1 C 8,1 C 1,0 C 89 % 84 % 0 % 1007,5 hPa 0,0 l/m 2,7 km/h (1 Bft) SW 225 0 min 0,0 UV-I 5,4 C 8,1 C 6,1 km/h (2 Bft)
19.09.2013 05:45 7,2 C 20,1 C 8,7 C 8,1 C 8,1 C 0,9 C 89 % 84 % 0 % 1007,5 hPa 0,0 l/m 2,9 km/h (1 Bft) S-SO 157 0 min 0,0 UV-I 5,5 C 8,1 C 4,5 km/h (1 Bft)
19.09.2013 05:50 7,2 C 20,1 C 8,7 C 8,1 C 8,1 C 0,9 C 89 % 84 % 0 % 1007,5 hPa 0,0 l/m 3,2 km/h (1 Bft) S 180 0 min 0,0 UV-I 5,5 C 8,1 C 4,2 km/h (1 Bft)
19.09.2013 05:55 7,2 C 20,1 C 8,8 C 8,2 C 8,2 C 1,0 C 89 % 84 % 0 % 1007,5 hPa 0,0 l/m 3,4 km/h (1 Bft) W-SW 247 0 min 0,0 UV-I 5,5 C 8,2 C 3,7 km/h (1 Bft)
19.09.2013 06:00 7,3 C 20,1 C 8,8 C 8,3 C 8,3 C 1,0 C 89 % 84 % 0 % 1007,5 hPa 0,0 l/m 3,1 km/h (1 Bft) SW 225 0 min 0,0 UV-I 5,6 C 8,3 C 4,0 km/h (1 Bft)
19.09.2013 06:05 7,3 C 20,1 C 8,8 C 8,4 C 8,4 C 1,1 C 89 % 84 % 0 % 1007,5 hPa 0,0 l/m 2,6 km/h (1 Bft) S-SW 202 0 min 0,0 UV-I 5,6 C 8,4 C 3,2 km/h (1 Bft)
19.09.2013 06:10 7,4 C 20,1 C 8,8 C 8,4 C 8,4 C 1,0 C 89 % 84 % 0 % 1007,5 hPa 0,0 l/m 2,4 km/h (1 Bft) S 180 0 min 0,0 UV-I 5,7 C 8,4 C 2,6 km/h (1 Bft)
19.09.2013 06:15 7,5 C 20,1 C 8,8 C 8,4 C 8,4 C 0,9 C 89 % 84 % 0 % 1007,3 hPa 0,0 l/m 3,2 km/h (1 Bft) W-SW 247 0 min 0,0 UV-I 5,8 C 8,4 C 5,1 km/h (1 Bft)
19.09.2013 06:20 7,5 C 20,1 C 8,9 C 8,5 C 8,5 C 1,0 C 88 % 84 % 0 % 1007,3 hPa 0,0 l/m 3,4 km/h (1 Bft) W-SW 247 0 min 0,0 UV-I 5,6 C 8,5 C 4,7 km/h (1 Bft)
19.09.2013 06:25 7,5 C 20,1 C 8,9 C 8,5 C 8,5 C 1,0 C 88 % 84 % 0 % 1007,3 hPa 0,0 l/m 2,7 km/h (1 Bft) S 180 0 min 0,0 UV-I 5,6 C 8,5 C 3,9 km/h (1 Bft)
19.09.2013 06:30 7,5 C 20,1 C 9,0 C 8,5 C 8,5 C 1,0 C 88 % 84 % 0 % 1007,3 hPa 0,0 l/m 2,3 km/h (1 Bft) S 180 0 min 0,0 UV-I 5,6 C 8,5 C 3,5 km/h (1 Bft)
19.09.2013 06:35 7,6 C 20,1 C 9,1 C 8,6 C 8,6 C 1,0 C 88 % 84 % 0 % 1007,8 hPa 0,0 l/m 2,1 km/h (1 Bft) W-SW 247 0 min 0,0 UV-I 5,7 C 8,6 C 3,1 km/h (1 Bft)
19.09.2013 06:40 7,6 C 20,1 C 9,1 C 8,6 C 8,6 C 1,0 C 88 % 84 % 0 % 1007,8 hPa 0,0 l/m 1,1 km/h (1 Bft) SW 225 0 min 0,0 UV-I 5,7 C 8,6 C 0,0 km/h (0 Bft)
19.09.2013 06:45 7,7 C 20,1 C 9,0 C 8,6 C 8,6 C 0,9 C 89 % 84 % 0 % 1007,8 hPa 0,0 l/m 1,0 km/h (0 Bft) SW 225 0 min 0,0 UV-I 6,0 C 8,6 C 3,2 km/h (1 Bft)
19.09.2013 06:50 7,6 C 20,1 C 9,1 C 8,6 C 8,6 C 1,0 C 88 % 84 % 0 % 1007,8 hPa 0,0 l/m 1,4 km/h (1 Bft) W-SW 247 0 min 0,0 UV-I 5,7 C 8,6 C 4,3 km/h (1 Bft)
19.09.2013 06:55 7,7 C 20,1 C 9,2 C 8,8 C 8,8 C 1,1 C 89 % 85 % 0 % 1008,5 hPa 0,0 l/m 1,9 km/h (1 Bft) SW 225 0 min 0,0 UV-I 6,0 C 8,8 C 1,8 km/h (1 Bft)
19.09.2013 07:00 7,8 C 20,1 C 9,2 C 8,8 C 8,8 C 1,0 C 89 % 85 % 0 % 1008,5 hPa 0,0 l/m 1,6 km/h (1 Bft) NO 45 0 min 0,0 UV-I 6,1 C 8,8 C 3,9 km/h (1 Bft)
19.09.2013 07:05 7,9 C 20,0 C 9,3 C 8,8 C 8,8 C 0,9 C 89 % 85 % 24 % 1008,5 hPa 0,0 l/m 1,6 km/h (1 Bft) W-SW 247 5 min 0,0 UV-I 6,2 C 8,8 C 1,6 km/h (1 Bft)
19.09.2013 07:10 7,9 C 20,0 C 9,3 C 8,9 C 8,9 C 1,0 C 89 % 85 % 26 % 1008,5 hPa 0,0 l/m 1,8 km/h (1 Bft) S 180 5 min 0,0 UV-I 6,2 C 8,9 C 3,2 km/h (1 Bft)
19.09.2013 07:15 7,9 C 20,0 C 9,2 C 9,0 C 9,0 C 1,1 C 89 % 85 % 29 % 1008,8 hPa 0,0 l/m 1,8 km/h (1 Bft) SW 225 5 min 0,0 UV-I 6,2 C 9,0 C 2,7 km/h (1 Bft)
19.09.2013 07:20 7,9 C 20,0 C 9,3 C 9,1 C 9,1 C 1,2 C 89 % 85 % 32 % 1008,8 hPa 0,0 l/m 2,3 km/h (1 Bft) SW 225 5 min 0,0 UV-I 6,2 C 9,1 C 2,9 km/h (1 Bft)
19.09.2013 07:25 8,0 C 20,1 C 9,3 C 9,1 C 9,1 C 1,1 C 89 % 85 % 29 % 1008,8 hPa 0,0 l/m 2,3 km/h (1 Bft) SW 225 5 min 0,0 UV-I 6,3 C 9,1 C 1,6 km/h (1 Bft)
19.09.2013 07:30 8,1 C 20,0 C 9,4 C 9,1 C 9,1 C 1,0 C 89 % 85 % 26 % 1008,7 hPa 0,0 l/m 2,4 km/h (1 Bft) S-SW 202 5 min 0,0 UV-I 6,4 C 9,1 C 3,1 km/h (1 Bft)
19.09.2013 07:35 8,0 C 20,0 C 9,5 C 9,1 C 9,1 C 1,1 C 89 % 84 % 29 % 1008,7 hPa 0,0 l/m 2,3 km/h (1 Bft) SW 225 5 min 0,0 UV-I 6,3 C 9,1 C 2,4 km/h (1 Bft)
19.09.2013 07:40 8,1 C 19,9 C 9,5 C 9,2 C 9,2 C 1,1 C 89 % 84 % 29 % 1008,7 hPa 0,0 l/m 2,4 km/h (1 Bft) W 270 0 min 0,0 UV-I 6,4 C 9,2 C 3,2 km/h (1 Bft)
19.09.2013 07:45 8,1 C 19,9 C 9,5 C 9,4 C 9,4 C 1,3 C 89 % 84 % 34 % 1008,7 hPa 0,0 l/m 2,7 km/h (1 Bft) S 180 0 min 0,0 UV-I 6,4 C 9,4 C 5,5 km/h (1 Bft)
19.09.2013 07:50 8,3 C 19,9 C 9,6 C 9,4 C 9,4 C 1,1 C 89 % 84 % 29 % 1009,4 hPa 0,0 l/m 2,7 km/h (1 Bft) SW 225 0 min 0,0 UV-I 6,6 C 9,4 C 3,2 km/h (1 Bft)
19.09.2013 07:55 8,3 C 19,9 C 9,7 C 9,5 C 9,5 C 1,2 C 89 % 84 % 32 % 1009,4 hPa 0,0 l/m 2,7 km/h (1 Bft) W 270 0 min 0,0 UV-I 6,6 C 9,5 C 3,1 km/h (1 Bft)
19.09.2013 08:00 8,4 C 19,9 C 9,6 C 9,6 C 9,6 C 1,2 C 88 % 84 % 32 % 1009,4 hPa 0,0 l/m 2,4 km/h (1 Bft) W-SW 247 0 min 0,0 UV-I 6,5 C 9,6 C 4,3 km/h (1 Bft)
19.09.2013 08:05 8,4 C 19,9 C 9,6 C 9,7 C 9,7 C 1,3 C 88 % 84 % 34 % 1009,4 hPa 0,0 l/m 2,3 km/h (1 Bft) W-SW 247 0 min 0,0 UV-I 6,5 C 9,7 C 3,1 km/h (1 Bft)
19.09.2013 08:10 8,4 C 19,9 C 9,9 C 9,8 C 9,8 C 1,4 C 88 % 84 % 37 % 1009,2 hPa 0,0 l/m 2,3 km/h (1 Bft) W-SW 247 0 min 0,0 UV-I 6,5 C 9,8 C 3,1 km/h (1 Bft)
19.09.2013 08:15 8,5 C 19,9 C 9,9 C 10,0 C 10,0 C 1,5 C 88 % 84 % 39 % 1009,2 hPa 0,0 l/m 2,1 km/h (1 Bft) S-SW 202 0 min 0,0 UV-I 6,6 C 10,0 C 2,7 km/h (1 Bft)
19.09.2013 08:20 8,6 C 19,9 C 10,0 C 10,2 C 10,2 C 1,6 C 88 % 84 % 42 % 1009,2 hPa 0,0 l/m 2,1 km/h (1 Bft) W-SW 247 0 min 0,0 UV-I 6,7 C 10,2 C 6,4 km/h (2 Bft)
19.09.2013 08:25 8,7 C 19,9 C 10,0 C 10,2 C 10,2 C 1,5 C 88 % 84 % 39 % 1009,2 hPa 0,0 l/m 2,7 km/h (1 Bft) W-SW 247 0 min 0,0 UV-I 6,8 C 10,2 C 1,6 km/h (1 Bft)
19.09.2013 08:30 8,9 C 19,9 C 10,1 C 10,4 C 10,4 C 1,5 C 88 % 84 % 39 % 1009,4 hPa 0,0 l/m 2,9 km/h (1 Bft) NO 45 0 min 0,0 UV-I 7,0 C 10,4 C 8,9 km/h (2 Bft)
19.09.2013 08:35 8,9 C 19,9 C 10,1 C 10,5 C 10,5 C 1,6 C 88 % 84 % 42 % 1009,4 hPa 0,0 l/m 2,7 km/h (1 Bft) S 180 0 min 0,0 UV-I 7,0 C 10,5 C 3,1 km/h (1 Bft)
19.09.2013 08:40 9,0 C 19,8 C 10,3 C 10,6 C 10,6 C 1,6 C 88 % 84 % 42 % 1009,4 hPa 0,0 l/m 3,7 km/h (1 Bft) W-SW 247 0 min 0,0 UV-I 7,1 C 10,6 C 12,7 km/h (3 Bft)
19.09.2013 08:45 9,2 C 19,8 C 10,3 C 10,7 C 10,7 C 1,5 C 87 % 84 % 39 % 1009,4 hPa 0,0 l/m 4,8 km/h (1 Bft) S 180 0 min 0,0 UV-I 7,2 C 10,7 C 11,6 km/h (2 Bft)
19.09.2013 08:50 9,2 C 19,8 C 10,5 C 10,6 C 10,6 C 1,4 C 87 % 84 % 37 % 1009,8 hPa 0,0 l/m 5,0 km/h (1 Bft) SW 225 0 min 0,0 UV-I 7,2 C 10,6 C 14,0 km/h (3 Bft)
19.09.2013 08:55 9,5 C 19,8 C 10,4 C 10,9 C 10,9 C 1,4 C 87 % 84 % 37 % 1009,8 hPa 0,0 l/m 4,3 km/h (1 Bft) S-SO 157 0 min 0,0 UV-I 7,4 C 10,9 C 4,0 km/h (1 Bft)
19.09.2013 09:00 9,6 C 19,8 C 10,5 C 11,1 C 11,1 C 1,5 C 86 % 83 % 39 % 1009,8 hPa 0,0 l/m 3,5 km/h (1 Bft) S-SO 157 0 min 0,0 UV-I 7,4 C 11,1 C 3,1 km/h (1 Bft)
19.09.2013 09:05 9,6 C 19,8 C 10,5 C 11,2 C 11,2 C 1,6 C 86 % 83 % 42 % 1009,8 hPa 0,0 l/m 3,9 km/h (1 Bft) W-SW 247 0 min 0,0 UV-I 7,4 C 11,2 C 5,0 km/h (1 Bft)
19.09.2013 09:10 9,8 C 19,8 C 10,4 C 11,1 C 11,1 C 1,3 C 86 % 83 % 34 % 1010,1 hPa 0,0 l/m 4,0 km/h (1 Bft) W-SW 247 0 min 0,0 UV-I 7,6 C 11,1 C 5,0 km/h (1 Bft)
19.09.2013 09:15 9,8 C 19,8 C 10,4 C 10,8 C 10,8 C 1,0 C 85 % 83 % 26 % 1010,1 hPa 0,0 l/m 4,7 km/h (1 Bft) NW 315 0 min 0,0 UV-I 7,4 C 10,8 C 5,8 km/h (2 Bft)
19.09.2013 09:20 9,9 C 19,8 C 10,7 C 10,7 C 10,7 C 0,8 C 85 % 83 % 21 % 1010,1 hPa 0,0 l/m 5,8 km/h (2 Bft) SW 225 0 min 0,0 UV-I 7,5 C 10,7 C 14,6 km/h (3 Bft)
19.09.2013 09:25 10,0 C 19,8 C 10,7 C 10,9 C 10,9 C 0,9 C 85 % 83 % 24 % 1010,1 hPa 0,0 l/m 6,0 km/h (2 Bft) SW 225 0 min 0,0 UV-I 7,6 C 10,9 C 9,2 km/h (2 Bft)
19.09.2013 09:30 10,1 C 19,7 C 10,8 C 11,2 C 11,2 C 1,1 C 85 % 83 % 29 % 1009,9 hPa 0,0 l/m 6,1 km/h (2 Bft) S 180 0 min 0,0 UV-I 7,7 C 11,2 C 10,5 km/h (2 Bft)
19.09.2013 09:35 10,4 C 19,7 C 10,8 C 11,2 C 11,2 C 0,8 C 84 % 83 % 21 % 1009,9 hPa 0,0 l/m 6,6 km/h (2 Bft) NO 45 0 min 0,0 UV-I 7,8 C 11,2 C 7,4 km/h (2 Bft)
19.09.2013 09:40 10,4 C 19,7 C 10,8 C 11,1 C 11,1 C 0,7 C 83 % 83 % 18 % 1009,9 hPa 0,0 l/m 6,9 km/h (2 Bft) W-SW 247 0 min 0,0 UV-I 7,6 C 11,1 C 6,3 km/h (2 Bft)
19.09.2013 09:45 10,5 C 19,7 C 11,0 C 11,4 C 11,4 C 0,9 C 83 % 82 % 24 % 1009,9 hPa 0,0 l/m 6,0 km/h (2 Bft) W-SW 247 0 min 0,0 UV-I 7,7 C 11,4 C 4,3 km/h (1 Bft)
19.09.2013 09:50 10,7 C 19,7 C 11,1 C 11,9 C 11,9 C 1,2 C 83 % 82 % 32 % 1010,5 hPa 0,0 l/m 4,8 km/h (1 Bft) S 180 0 min 0,0 UV-I 7,9 C 11,9 C 18,7 km/h (3 Bft)
19.09.2013 09:55 10,8 C 19,7 C 11,2 C 12,1 C 12,1 C 1,3 C 83 % 82 % 34 % 1010,5 hPa 0,0 l/m 4,5 km/h (1 Bft) W-SW 247 0 min 0,0 UV-I 8,0 C 12,1 C 11,3 km/h (2 Bft)
19.09.2013 10:00 10,9 C 19,7 C 11,3 C 11,8 C 11,8 C 0,9 C 82 % 82 % 24 % 1010,5 hPa 0,0 l/m 6,3 km/h (2 Bft) W-SW 247 0 min 0,0 UV-I 7,9 C 11,8 C 19,8 km/h (3 Bft)
19.09.2013 10:05 10,9 C 19,7 C 11,2 C 11,7 C 11,7 C 0,8 C 82 % 82 % 21 % 1010,5 hPa 0,0 l/m 6,9 km/h (2 Bft) S-SW 202 0 min 0,0 UV-I 7,9 C 11,7 C 4,2 km/h (1 Bft)
19.09.2013 10:10 10,9 C 19,7 C 11,4 C 11,8 C 11,8 C 0,9 C 82 % 82 % 24 % 1010,1 hPa 0,0 l/m 6,8 km/h (2 Bft) W-SW 247 0 min 0,0 UV-I 7,9 C 11,8 C 8,5 km/h (2 Bft)
19.09.2013 10:15 11,0 C 19,7 C 11,5 C 12,4 C 12,4 C 1,4 C 81 % 82 % 37 % 1010,1 hPa 0,0 l/m 5,3 km/h (1 Bft) SW 225 0 min 0,0 UV-I 7,9 C 12,4 C 7,9 km/h (2 Bft)
19.09.2013 10:20 11,2 C 19,7 C 11,3 C 11,9 C 11,9 C 0,7 C 80 % 81 % 18 % 1010,1 hPa 0,0 l/m 7,1 km/h (2 Bft) SW 225 0 min 0,0 UV-I 7,9 C 11,9 C 14,3 km/h (3 Bft)
19.09.2013 10:25 11,1 C 19,7 C 11,3 C 11,7 C 11,7 C 0,6 C 80 % 81 % 16 % 1010,1 hPa 0,0 l/m 7,6 km/h (2 Bft) W-SW 247 0 min 0,0 UV-I 7,8 C 11,7 C 5,5 km/h (1 Bft)
19.09.2013 10:30 11,2 C 19,7 C 11,4 C 11,9 C 11,9 C 0,7 C 80 % 80 % 18 % 1011,0 hPa 0,0 l/m 6,4 km/h (2 Bft) SO 135 0 min 0,0 UV-I 7,9 C 11,9 C 9,3 km/h (2 Bft)
19.09.2013 10:35 11,3 C 19,7 C 11,5 C 12,2 C 12,2 C 0,9 C 80 % 80 % 24 % 1011,0 hPa 0,0 l/m 6,1 km/h (2 Bft) W-SW 247 0 min 0,0 UV-I 8,0 C 12,2 C 14,5 km/h (3 Bft)
19.09.2013 10:40 11,2 C 19,7 C 11,5 C 11,9 C 11,9 C 0,7 C 80 % 80 % 18 % 1011,0 hPa 0,0 l/m 6,9 km/h (2 Bft) N-NO 22 0 min 0,0 UV-I 7,9 C 11,9 C 8,9 km/h (2 Bft)
19.09.2013 10:45 11,2 C 19,7 C 11,5 C 12,2 C 12,2 C 1,0 C 80 % 80 % 26 % 1011,0 hPa 0,0 l/m 6,4 km/h (2 Bft) W-SW 247 0 min 0,0 UV-I 7,9 C 12,2 C 10,9 km/h (2 Bft)
19.09.2013 10:50 11,3 C 19,7 C 11,6 C 12,7 C 12,7 C 1,4 C 80 % 80 % 37 % 1011,0 hPa 0,0 l/m 5,3 km/h (1 Bft) SW 225 0 min 0,0 UV-I 8,0 C 12,7 C 6,3 km/h (2 Bft)
19.09.2013 10:55 11,4 C 19,7 C 11,5 C 12,5 C 12,5 C 1,1 C 78 % 80 % 29 % 1011,0 hPa 0,0 l/m 6,4 km/h (2 Bft) W-SW 247 0 min 0,0 UV-I 7,7 C 12,5 C 8,0 km/h (2 Bft)
19.09.2013 11:00 11,3 C 19,7 C 11,7 C 12,3 C 12,3 C 1,0 C 78 % 79 % 26 % 1011,0 hPa 0,0 l/m 7,4 km/h (2 Bft) S-SW 202 0 min 0,0 UV-I 7,6 C 12,3 C 6,9 km/h (2 Bft)
19.09.2013 11:05 11,5 C 19,7 C 11,9 C 12,7 C 12,7 C 1,2 C 79 % 80 % 32 % 1011,0 hPa 0,0 l/m 6,1 km/h (2 Bft) S 180 0 min 0,0 UV-I 8,0 C 12,7 C 6,0 km/h (2 Bft)
19.09.2013 11:10 11,4 C 19,7 C 12,0 C 12,7 C 12,7 C 1,3 C 80 % 80 % 34 % 1011,2 hPa 0,0 l/m 5,1 km/h (1 Bft) SO 135 0 min 0,0 UV-I 8,1 C 12,7 C 8,5 km/h (2 Bft)
19.09.2013 11:15 11,5 C 19,7 C 12,0 C 12,9 C 12,9 C 1,4 C 80 % 80 % 37 % 1011,2 hPa 0,0 l/m 4,7 km/h (1 Bft) S-SW 202 0 min 0,0 UV-I 8,2 C 12,9 C 5,0 km/h (1 Bft)
19.09.2013 11:20 11,6 C 19,7 C 12,2 C 13,3 C 13,3 C 1,7 C 80 % 79 % 45 % 1011,2 hPa 0,0 l/m 3,7 km/h (1 Bft) SW 225 0 min 0,0 UV-I 8,3 C 13,3 C 4,0 km/h (1 Bft)
19.09.2013 11:25 11,6 C 19,7 C 12,1 C 13,5 C 13,5 C 1,9 C 79 % 79 % 50 % 1011,2 hPa 0,0 l/m 3,9 km/h (1 Bft) SW 225 0 min 0,0 UV-I 8,1 C 13,5 C 5,8 km/h (2 Bft)
19.09.2013 11:30 11,7 C 19,7 C 12,1 C 13,4 C 13,4 C 1,7 C 78 % 79 % 45 % 1011,2 hPa 0,0 l/m 4,0 km/h (1 Bft) SW 225 0 min 0,0 UV-I 8,0 C 13,4 C 5,6 km/h (1 Bft)
19.09.2013 11:35 11,9 C 19,7 C 12,1 C 13,3 C 13,3 C 1,4 C 76 % 78 % 37 % 1011,2 hPa 0,0 l/m 6,1 km/h (2 Bft) SW 225 0 min 0,0 UV-I 7,8 C 13,3 C 9,3 km/h (2 Bft)
19.09.2013 11:40 12,0 C 19,7 C 12,2 C 13,3 C 13,3 C 1,3 C 76 % 78 % 34 % 1011,2 hPa 0,0 l/m 6,9 km/h (2 Bft) W-SW 247 0 min 0,0 UV-I 7,9 C 13,3 C 7,4 km/h (2 Bft)
19.09.2013 11:45 12,0 C 19,7 C 12,3 C 13,5 C 13,5 C 1,5 C 75 % 78 % 39 % 1011,2 hPa 0,0 l/m 6,4 km/h (2 Bft) W-SW 247 0 min 0,0 UV-I 7,7 C 13,5 C 8,9 km/h (2 Bft)
19.09.2013 11:50 12,1 C 19,7 C 12,1 C 13,5 C 13,5 C 1,4 C 75 % 77 % 37 % 1011,4 hPa 0,0 l/m 5,8 km/h (2 Bft) W 270 0 min 0,0 UV-I 7,8 C 13,5 C 7,6 km/h (2 Bft)
19.09.2013 11:55 12,1 C 19,7 C 12,3 C 13,5 C 13,5 C 1,4 C 75 % 77 % 37 % 1011,4 hPa 0,0 l/m 5,8 km/h (2 Bft) SW 225 0 min 0,0 UV-I 7,8 C 13,5 C 5,1 km/h (1 Bft)
19.09.2013 12:00 12,1 C 19,7 C 12,2 C 13,5 C 13,5 C 1,4 C 75 % 77 % 37 % 1011,4 hPa 0,0 l/m 5,0 km/h (1 Bft) W-NW 292 0 min 0,0 UV-I 7,8 C 13,5 C 7,9 km/h (2 Bft)
19.09.2013 12:05 12,1 C 19,7 C 12,0 C 13,3 C 13,3 C 1,2 C 75 % 77 % 32 % 1011,4 hPa 0,0 l/m 5,5 km/h (1 Bft) W-SW 247 0 min 0,0 UV-I 7,8 C 13,3 C 11,4 km/h (2 Bft)
19.09.2013 12:10 12,0 C 19,7 C 12,0 C 12,9 C 12,9 C 0,9 C 74 % 77 % 24 % 1011,6 hPa 0,0 l/m 6,3 km/h (2 Bft) O-NO 67 0 min 0,0 UV-I 7,5 C 12,9 C 5,8 km/h (2 Bft)
19.09.2013 12:15 12,1 C 19,7 C 12,0 C 13,1 C 13,1 C 1,0 C 74 % 77 % 26 % 1011,6 hPa 0,0 l/m 6,3 km/h (2 Bft) W 270 0 min 0,0 UV-I 7,6 C 13,1 C 4,7 km/h (1 Bft)
19.09.2013 12:20 12,1 C 19,7 C 12,1 C 13,2 C 13,2 C 1,1 C 74 % 77 % 29 % 1011,6 hPa 0,0 l/m 5,6 km/h (1 Bft) W-SW 247 0 min 0,0 UV-I 7,6 C 13,2 C 2,7 km/h (1 Bft)
19.09.2013 12:25 12,1 C 19,7 C 12,1 C 13,1 C 13,1 C 1,0 C 74 % 77 % 26 % 1011,6 hPa 0,0 l/m 4,8 km/h (1 Bft) SW 225 0 min 0,0 UV-I 7,6 C 13,1 C 3,7 km/h (1 Bft)
19.09.2013 12:30 12,1 C 19,7 C 12,1 C 12,9 C 12,9 C 0,8 C 74 % 77 % 21 % 1011,6 hPa 0,0 l/m 4,5 km/h (1 Bft) W-SW 247 0 min 0,0 UV-I 7,6 C 12,9 C 8,0 km/h (2 Bft)
19.09.2013 12:35 12,2 C 19,7 C 13,0 C 14,2 C 14,2 C 2,0 C 75 % 78 % 53 % 1011,6 hPa 0,0 l/m 5,0 km/h (1 Bft) W 270 0 min 0,0 UV-I 7,9 C 14,2 C 5,8 km/h (2 Bft)
19.09.2013 12:40 13,1 C 19,7 C 14,1 C 17,4 C 17,4 C 4,3 C 76 % 76 % 100 % 1011,6 hPa 0,0 l/m 4,7 km/h (1 Bft) SW 225 5 min 0,0 UV-I 9,0 C 17,4 C 4,2 km/h (1 Bft)
19.09.2013 12:45 13,5 C 19,7 C 13,8 C 17,7 C 17,7 C 4,2 C 73 % 75 % 100 % 1011,6 hPa 0,0 l/m 4,8 km/h (1 Bft) S-SO 157 5 min 0,0 UV-I 8,8 C 17,7 C 4,8 km/h (1 Bft)
19.09.2013 12:50 13,3 C 19,7 C 13,5 C 16,4 C 16,4 C 3,1 C 71 % 74 % 82 % 1011,7 hPa 0,0 l/m 5,3 km/h (1 Bft) SW 225 0 min 0,0 UV-I 8,2 C 16,4 C 10,5 km/h (2 Bft)
19.09.2013 12:55 13,1 C 19,7 C 14,1 C 16,3 C 16,3 C 3,2 C 71 % 74 % 84 % 1011,7 hPa 0,0 l/m 6,4 km/h (2 Bft) W-SW 247 0 min 0,0 UV-I 8,0 C 16,3 C 11,3 km/h (2 Bft)
19.09.2013 13:00 13,1 C 19,8 C 13,8 C 15,4 C 15,4 C 2,3 C 71 % 73 % 61 % 1011,7 hPa 0,0 l/m 6,9 km/h (2 Bft) S 180 0 min 0,0 UV-I 8,0 C 15,4 C 8,2 km/h (2 Bft)
19.09.2013 13:05 13,0 C 19,8 C 13,7 C 15,0 C 15,0 C 2,0 C 72 % 74 % 53 % 1011,7 hPa 0,0 l/m 6,9 km/h (2 Bft) SO 135 0 min 0,0 UV-I 8,1 C 15,0 C 4,8 km/h (1 Bft)
19.09.2013 13:10 13,1 C 19,8 C 13,6 C 15,0 C 15,0 C 1,9 C 72 % 74 % 50 % 1011,9 hPa 0,0 l/m 6,8 km/h (2 Bft) W-SW 247 0 min 0,0 UV-I 8,2 C 15,0 C 12,7 km/h (3 Bft)
19.09.2013 13:15 13,1 C 19,8 C 13,5 C 14,8 C 14,6 C 1,7 C 70 % 73 % 45 % 1011,9 hPa 0,0 l/m 7,7 km/h (2 Bft) S 180 0 min 0,0 UV-I 7,8 C 14,6 C 12,7 km/h (3 Bft)
19.09.2013 13:20 13,1 C 19,8 C 13,2 C 14,4 C 14,1 C 1,3 C 70 % 73 % 34 % 1011,9 hPa 0,0 l/m 8,4 km/h (2 Bft) SW 225 0 min 0,0 UV-I 7,8 C 14,1 C 7,4 km/h (2 Bft)
19.09.2013 13:25 13,1 C 19,8 C 13,3 C 14,1 C 13,9 C 1,0 C 70 % 73 % 26 % 1011,9 hPa 0,0 l/m 8,4 km/h (2 Bft) S 180 0 min 0,0 UV-I 7,8 C 13,9 C 13,0 km/h (3 Bft)
19.09.2013 13:30 12,9 C 19,8 C 13,2 C 14,0 C 14,0 C 1,1 C 70 % 73 % 29 % 1012,1 hPa 0,0 l/m 7,7 km/h (2 Bft) S 180 0 min 0,0 UV-I 7,6 C 14,0 C 10,8 km/h (2 Bft)
19.09.2013 13:35 13,0 C 19,8 C 13,2 C 14,2 C 14,2 C 1,2 C 70 % 73 % 32 % 1012,1 hPa 0,0 l/m 7,1 km/h (2 Bft) SW 225 0 min 0,0 UV-I 7,7 C 14,2 C 8,4 km/h (2 Bft)
19.09.2013 13:40 12,9 C 19,8 C 13,2 C 13,9 C 13,9 C 1,0 C 71 % 74 % 26 % 1012,1 hPa 0,0 l/m 6,6 km/h (2 Bft) S-SW 202 0 min 0,0 UV-I 7,8 C 13,9 C 8,7 km/h (2 Bft)
19.09.2013 13:45 12,9 C 19,8 C 13,2 C 13,9 C 13,9 C 1,0 C 71 % 73 % 26 % 1012,1 hPa 0,0 l/m 6,8 km/h (2 Bft) W-SW 247 0 min 0,0 UV-I 7,8 C 13,9 C 4,8 km/h (1 Bft)
19.09.2013 13:50 12,9 C 19,8 C 13,2 C 14,1 C 14,1 C 1,2 C 71 % 74 % 32 % 1012,1 hPa 0,0 l/m 6,6 km/h (2 Bft) W 270 0 min 0,0 UV-I 7,8 C 14,1 C 6,9 km/h (2 Bft)
19.09.2013 13:55 13,0 C 19,8 C 13,4 C 14,3 C 14,3 C 1,3 C 71 % 74 % 34 % 1012,1 hPa 0,0 l/m 7,2 km/h (2 Bft) W-SW 247 0 min 0,0 UV-I 7,9 C 14,3 C 11,6 km/h (2 Bft)
19.09.2013 14:00 13,3 C 19,8 C 13,7 C 14,9 C 15,2 C 1,6 C 71 % 74 % 42 % 1012,1 hPa 0,0 l/m 7,7 km/h (2 Bft) W-SW 247 0 min 0,0 UV-I 8,2 C 15,2 C 8,9 km/h (2 Bft)
19.09.2013 14:05 13,5 C 19,8 C 13,9 C 16,2 C 16,2 C 2,7 C 71 % 74 % 71 % 1012,1 hPa 0,0 l/m 7,7 km/h (2 Bft) SW 225 0 min 0,0 UV-I 8,3 C 16,2 C 9,7 km/h (2 Bft)
19.09.2013 14:10 13,5 C 19,7 C 14,1 C 16,9 C 16,9 C 3,4 C 68 % 72 % 89 % 1011,6 hPa 0,0 l/m 8,7 km/h (2 Bft) S 180 5 min 0,0 UV-I 7,7 C 16,9 C 21,7 km/h (4 Bft)
19.09.2013 14:15 13,6 C 19,7 C 14,0 C 17,4 C 17,4 C 3,8 C 67 % 71 % 100 % 1011,6 hPa 0,0 l/m 8,9 km/h (2 Bft) SW 225 5 min 0,0 UV-I 7,6 C 17,4 C 8,4 km/h (2 Bft)
19.09.2013 14:20 13,5 C 19,7 C 14,1 C 17,5 C 17,5 C 4,0 C 67 % 71 % 100 % 1011,6 hPa 0,0 l/m 8,5 km/h (2 Bft) S 180 5 min 0,0 UV-I 7,5 C 17,5 C 16,9 km/h (3 Bft)
19.09.2013 14:25 13,6 C 19,7 C 14,1 C 17,5 C 17,5 C 3,9 C 67 % 70 % 100 % 1011,6 hPa 0,0 l/m 9,2 km/h (2 Bft) W-SW 247 5 min 0,0 UV-I 7,6 C 17,5 C 15,6 km/h (3 Bft)
19.09.2013 14:30 13,6 C 19,7 C 14,1 C 17,5 C 17,5 C 3,9 C 67 % 71 % 100 % 1011,9 hPa 0,0 l/m 9,3 km/h (2 Bft) S 180 5 min 0,0 UV-I 7,6 C 17,5 C 6,6 km/h (2 Bft)
19.09.2013 14:35 13,7 C 19,7 C 14,1 C 17,6 C 17,6 C 3,9 C 67 % 70 % 100 % 1011,9 hPa 0,0 l/m 9,2 km/h (2 Bft) NW 315 5 min 0,0 UV-I 7,7 C 17,6 C 11,1 km/h (2 Bft)
19.09.2013 14:40 13,7 C 19,7 C 14,5 C 18,0 C 18,0 C 4,3 C 68 % 71 % 100 % 1011,9 hPa 0,0 l/m 8,2 km/h (2 Bft) W-SW 247 5 min 0,0 UV-I 7,9 C 18,0 C 22,2 km/h (4 Bft)
19.09.2013 14:45 13,9 C 19,7 C 14,4 C 18,2 C 18,2 C 4,3 C 67 % 71 % 100 % 1011,9 hPa 0,0 l/m 8,2 km/h (2 Bft) W-SW 247 5 min 0,0 UV-I 7,9 C 18,2 C 10,5 km/h (2 Bft)
19.09.2013 14:50 13,9 C 19,8 C 14,5 C 18,3 C 18,3 C 4,4 C 67 % 70 % 100 % 1011,9 hPa 0,0 l/m 6,9 km/h (2 Bft) S-SO 157 5 min 0,0 UV-I 7,9 C 18,3 C 12,2 km/h (2 Bft)
19.09.2013 14:55 14,1 C 19,8 C 14,7 C 18,6 C 18,6 C 4,5 C 68 % 71 % 100 % 1011,9 hPa 0,0 l/m 6,9 km/h (2 Bft) SW 225 5 min 0,0 UV-I 8,3 C 18,6 C 10,6 km/h (2 Bft)
19.09.2013 15:00 14,2 C 19,8 C 14,8 C 18,6 C 18,6 C 4,4 C 65 % 69 % 100 % 1011,9 hPa 0,0 l/m 7,2 km/h (2 Bft) W-SW 247 5 min 0,0 UV-I 7,7 C 18,6 C 10,0 km/h (2 Bft)
19.09.2013 15:05 14,3 C 19,8 C 14,9 C 18,4 C 18,4 C 4,1 C 65 % 69 % 100 % 1011,9 hPa 0,0 l/m 8,0 km/h (2 Bft) W 270 5 min 0,0 UV-I 7,8 C 18,4 C 11,1 km/h (2 Bft)
19.09.2013 15:10 14,4 C 19,8 C 14,8 C 18,7 C 18,7 C 4,3 C 66 % 69 % 100 % 1012,1 hPa 0,0 l/m 8,2 km/h (2 Bft) S 180 5 min 0,0 UV-I 8,1 C 18,7 C 9,2 km/h (2 Bft)
19.09.2013 15:15 14,4 C 19,8 C 14,7 C 17,7 C 17,7 C 3,3 C 66 % 69 % 87 % 1012,1 hPa 0,0 l/m 6,8 km/h (2 Bft) SO 135 5 min 0,0 UV-I 8,1 C 17,7 C 6,3 km/h (2 Bft)
19.09.2013 15:20 14,3 C 19,8 C 14,7 C 17,0 C 17,0 C 2,7 C 66 % 70 % 71 % 1012,1 hPa 0,0 l/m 7,1 km/h (2 Bft) W 270 0 min 0,0 UV-I 8,0 C 17,0 C 5,3 km/h (1 Bft)
19.09.2013 15:25 14,7 C 19,8 C 15,1 C 17,8 C 17,8 C 3,1 C 66 % 70 % 82 % 1012,1 hPa 0,0 l/m 6,8 km/h (2 Bft) S-SW 202 0 min 0,0 UV-I 8,4 C 17,8 C 7,1 km/h (2 Bft)
19.09.2013 15:30 15,2 C 19,8 C 15,7 C 19,0 C 19,0 C 3,8 C 64 % 68 % 100 % 1011,4 hPa 0,0 l/m 6,8 km/h (2 Bft) W 270 5 min 0,0 UV-I 8,4 C 19,0 C 11,7 km/h (2 Bft)
19.09.2013 15:35 15,6 C 19,8 C 15,5 C 19,5 C 19,5 C 3,9 C 61 % 67 % 100 % 1011,4 hPa 0,0 l/m 7,7 km/h (2 Bft) W-NW 292 5 min 0,0 UV-I 8,1 C 19,5 C 14,8 km/h (3 Bft)
19.09.2013 15:40 15,2 C 19,8 C 15,0 C 17,7 C 17,7 C 2,5 C 60 % 67 % 66 % 1011,4 hPa 0,0 l/m 8,4 km/h (2 Bft) SO 135 0 min 0,0 UV-I 7,5 C 17,7 C 9,5 km/h (2 Bft)
19.09.2013 15:45 14,9 C 19,8 C 14,8 C 16,8 C 16,8 C 1,9 C 61 % 67 % 50 % 1011,4 hPa 0,0 l/m 8,4 km/h (2 Bft) W-SW 247 0 min 0,0 UV-I 7,4 C 16,8 C 10,9 km/h (2 Bft)
19.09.2013 15:50 14,6 C 19,8 C 14,5 C 16,1 C 16,1 C 1,5 C 62 % 67 % 39 % 1011,9 hPa 0,0 l/m 8,4 km/h (2 Bft) W 270 0 min 0,0 UV-I 7,4 C 16,1 C 10,0 km/h (2 Bft)
19.09.2013 15:55 14,4 C 19,8 C 14,4 C 15,4 C 15,4 C 1,0 C 63 % 68 % 26 % 1011,9 hPa 0,0 l/m 7,6 km/h (2 Bft) S 180 0 min 0,0 UV-I 7,4 C 15,4 C 11,9 km/h (2 Bft)
19.09.2013 16:00 14,4 C 19,8 C 14,5 C 15,5 C 15,5 C 1,1 C 64 % 69 % 29 % 1011,9 hPa 0,0 l/m 6,6 km/h (2 Bft) W 270 0 min 0,0 UV-I 7,7 C 15,5 C 4,8 km/h (1 Bft)
19.09.2013 16:05 14,4 C 19,8 C 14,6 C 15,6 C 15,6 C 1,2 C 64 % 69 % 32 % 1011,9 hPa 0,0 l/m 6,3 km/h (2 Bft) SW 225 0 min 0,0 UV-I 7,7 C 15,6 C 4,3 km/h (1 Bft)
19.09.2013 16:10 14,5 C 19,8 C 14,5 C 15,9 C 15,9 C 1,4 C 63 % 69 % 37 % 1012,5 hPa 0,0 l/m 6,0 km/h (2 Bft) S-SO 157 0 min 0,0 UV-I 7,5 C 15,9 C 7,4 km/h (2 Bft)
19.09.2013 16:15 14,5 C 19,8 C 14,6 C 16,1 C 16,1 C 1,6 C 64 % 69 % 42 % 1012,5 hPa 0,0 l/m 5,6 km/h (1 Bft) SW 225 0 min 0,0 UV-I 7,8 C 16,1 C 3,9 km/h (1 Bft)
19.09.2013 16:20 14,8 C 19,8 C 15,1 C 17,8 C 17,8 C 3,0 C 65 % 69 % 79 % 1012,5 hPa 0,0 l/m 5,1 km/h (1 Bft) W-SW 247 0 min 0,0 UV-I 8,3 C 17,8 C 8,9 km/h (2 Bft)
19.09.2013 16:25 15,1 C 19,9 C 15,5 C 19,1 C 19,1 C 4,0 C 65 % 70 % 100 % 1012,5 hPa 0,0 l/m 4,3 km/h (1 Bft) W-SW 247 5 min 0,0 UV-I 8,6 C 19,1 C 5,1 km/h (1 Bft)
19.09.2013 16:30 15,3 C 19,9 C 15,8 C 20,3 C 20,3 C 5,0 C 63 % 67 % 100 % 1012,0 hPa 0,0 l/m 4,8 km/h (1 Bft) SW 225 5 min 0,0 UV-I 8,3 C 20,3 C 10,9 km/h (2 Bft)
19.09.2013 16:35 15,5 C 19,9 C 15,8 C 20,4 C 20,4 C 4,9 C 60 % 66 % 100 % 1012,0 hPa 0,0 l/m 7,2 km/h (2 Bft) S-SW 202 5 min 0,0 UV-I 7,8 C 20,4 C 16,4 km/h (3 Bft)
19.09.2013 16:40 15,3 C 19,9 C 15,9 C 19,9 C 19,9 C 4,6 C 60 % 65 % 100 % 1012,0 hPa 0,0 l/m 8,7 km/h (2 Bft) W 270 5 min 0,0 UV-I 7,6 C 19,9 C 11,3 km/h (2 Bft)
19.09.2013 16:45 15,1 C 19,9 C 15,6 C 19,4 C 19,4 C 4,3 C 60 % 65 % 100 % 1012,0 hPa 0,0 l/m 9,2 km/h (2 Bft) S 180 5 min 0,0 UV-I 7,4 C 19,4 C 16,6 km/h (3 Bft)
19.09.2013 16:50 15,0 C 19,9 C 15,6 C 19,2 C 19,2 C 4,2 C 61 % 66 % 100 % 1011,6 hPa 0,0 l/m 8,2 km/h (2 Bft) S 180 5 min 0,0 UV-I 7,5 C 19,2 C 7,9 km/h (2 Bft)
19.09.2013 16:55 15,3 C 19,9 C 15,8 C 19,5 C 19,5 C 4,2 C 60 % 66 % 100 % 1011,6 hPa 0,0 l/m 6,6 km/h (2 Bft) N-NW 337 5 min 0,0 UV-I 7,6 C 19,5 C 4,0 km/h (1 Bft)
19.09.2013 17:00 14,9 C 19,9 C 15,3 C 18,1 C 18,1 C 3,2 C 60 % 65 % 84 % 1011,6 hPa 0,0 l/m 7,2 km/h (2 Bft) S-SW 202 0 min 0,0 UV-I 7,2 C 18,1 C 12,7 km/h (3 Bft)
19.09.2013 17:05 14,8 C 19,9 C 15,1 C 17,2 C 17,2 C 2,4 C 60 % 65 % 63 % 1011,6 hPa 0,0 l/m 6,8 km/h (2 Bft) W-SW 247 0 min 0,0 UV-I 7,1 C 17,2 C 5,1 km/h (1 Bft)
19.09.2013 17:10 14,7 C 19,9 C 15,1 C 17,3 C 17,3 C 2,6 C 61 % 66 % 68 % 1012,1 hPa 0,0 l/m 5,8 km/h (2 Bft) W-SW 247 0 min 0,0 UV-I 7,3 C 17,3 C 5,0 km/h (1 Bft)
19.09.2013 17:15 14,8 C 19,9 C 15,2 C 18,1 C 18,1 C 3,3 C 61 % 66 % 87 % 1012,1 hPa 0,0 l/m 5,6 km/h (1 Bft) W 270 5 min 0,0 UV-I 7,4 C 18,1 C 7,1 km/h (2 Bft)
19.09.2013 17:20 14,7 C 19,9 C 15,5 C 18,1 C 18,1 C 3,4 C 61 % 66 % 89 % 1012,1 hPa 0,0 l/m 6,0 km/h (2 Bft) S 180 5 min 0,0 UV-I 7,3 C 18,1 C 8,2 km/h (2 Bft)
19.09.2013 17:25 14,6 C 19,9 C 14,9 C 17,2 C 17,2 C 2,6 C 61 % 65 % 68 % 1012,1 hPa 0,0 l/m 5,5 km/h (1 Bft) W 270 0 min 0,0 UV-I 7,2 C 17,2 C 3,7 km/h (1 Bft)
19.09.2013 17:30 14,4 C 19,9 C 14,5 C 16,1 C 16,1 C 1,7 C 63 % 67 % 45 % 1012,7 hPa 0,0 l/m 5,0 km/h (1 Bft) SW 225 0 min 0,0 UV-I 7,4 C 16,1 C 6,1 km/h (2 Bft)
19.09.2013 17:35 14,3 C 19,9 C 14,5 C 16,0 C 16,0 C 1,7 C 64 % 68 % 45 % 1012,7 hPa 0,0 l/m 4,0 km/h (1 Bft) W-NW 292 0 min 0,0 UV-I 7,6 C 16,0 C 3,9 km/h (1 Bft)
19.09.2013 17:40 14,2 C 19,9 C 14,5 C 16,9 C 16,9 C 2,7 C 64 % 68 % 71 % 1012,7 hPa 0,0 l/m 5,5 km/h (1 Bft) W-SW 247 5 min 0,0 UV-I 7,5 C 16,9 C 6,6 km/h (2 Bft)
19.09.2013 17:45 14,1 C 19,9 C 14,3 C 16,0 C 16,0 C 1,9 C 63 % 68 % 50 % 1012,7 hPa 0,0 l/m 6,1 km/h (2 Bft) SW 225 0 min 0,0 UV-I 7,2 C 16,0 C 6,4 km/h (2 Bft)
19.09.2013 17:50 13,9 C 19,9 C 13,9 C 15,2 C 15,2 C 1,3 C 63 % 68 % 34 % 1012,4 hPa 0,0 l/m 6,0 km/h (2 Bft) W-SW 247 0 min 0,0 UV-I 7,0 C 15,2 C 5,1 km/h (1 Bft)
19.09.2013 17:55 13,9 C 19,9 C 13,9 C 14,8 C 14,8 C 0,9 C 63 % 68 % 24 % 1012,4 hPa 0,0 l/m 4,7 km/h (1 Bft) W-SW 247 0 min 0,0 UV-I 7,0 C 14,8 C 4,0 km/h (1 Bft)
19.09.2013 18:00 13,9 C 19,9 C 14,0 C 15,8 C 15,8 C 1,9 C 63 % 68 % 50 % 1012,4 hPa 0,0 l/m 4,5 km/h (1 Bft) W-SW 247 5 min 0,0 UV-I 7,0 C 15,8 C 12,4 km/h (3 Bft)
19.09.2013 18:05 13,9 C 20,0 C 14,0 C 16,3 C 16,3 C 2,4 C 63 % 68 % 63 % 1012,4 hPa 0,0 l/m 5,3 km/h (1 Bft) S 180 5 min 0,0 UV-I 7,0 C 16,3 C 10,9 km/h (2 Bft)
19.09.2013 18:10 14,0 C 20,0 C 13,9 C 16,5 C 16,5 C 2,5 C 63 % 68 % 66 % 1012,4 hPa 0,0 l/m 5,3 km/h (1 Bft) W 270 5 min 0,0 UV-I 7,1 C 16,5 C 3,5 km/h (1 Bft)
19.09.2013 18:15 13,9 C 20,0 C 13,8 C 15,8 C 15,8 C 1,9 C 63 % 68 % 50 % 1012,4 hPa 0,0 l/m 4,2 km/h (1 Bft) SW 225 5 min 0,0 UV-I 7,0 C 15,8 C 4,5 km/h (1 Bft)
19.09.2013 18:20 13,9 C 20,0 C 13,6 C 15,2 C 15,2 C 1,3 C 64 % 69 % 34 % 1012,4 hPa 0,0 l/m 3,9 km/h (1 Bft) W-SW 247 5 min 0,0 UV-I 7,2 C 15,2 C 6,8 km/h (2 Bft)
19.09.2013 18:25 13,7 C 20,0 C 13,4 C 14,7 C 14,7 C 1,0 C 64 % 70 % 26 % 1012,4 hPa 0,0 l/m 3,7 km/h (1 Bft) W-SW 247 0 min 0,0 UV-I 7,0 C 14,7 C 2,6 km/h (1 Bft)
19.09.2013 18:30 13,6 C 20,0 C 13,1 C 13,8 C 13,8 C 0,2 C 65 % 70 % 5 % 1012,1 hPa 0,0 l/m 3,2 km/h (1 Bft) SW 225 0 min 0,0 UV-I 7,1 C 13,8 C 3,4 km/h (1 Bft)
19.09.2013 18:35 13,4 C 20,0 C 13,1 C 13,3 C 13,1 C 0,0 C 65 % 71 % 0 % 1012,1 hPa 0,0 l/m 2,9 km/h (1 Bft) S 180 0 min 0,0 UV-I 7,0 C 13,1 C 4,8 km/h (1 Bft)
19.09.2013 18:40 13,3 C 20,0 C 12,9 C 13,2 C 13,0 C 0,0 C 66 % 72 % 0 % 1012,1 hPa 0,0 l/m 2,4 km/h (1 Bft) W-SW 247 0 min 0,0 UV-I 7,1 C 13,0 C 0,0 km/h (0 Bft)
19.09.2013 18:45 13,1 C 20,0 C 12,8 C 13,1 C 13,1 C 0,0 C 67 % 72 % 0 % 1012,1 hPa 0,0 l/m 1,6 km/h (1 Bft) NO 45 0 min 0,0 UV-I 7,1 C 13,1 C 2,3 km/h (1 Bft)
19.09.2013 18:50 13,1 C 20,0 C 12,7 C 13,4 C 13,4 C 0,3 C 67 % 73 % 8 % 1012,6 hPa 0,0 l/m 1,6 km/h (1 Bft) S-SW 202 0 min 0,0 UV-I 7,1 C 13,4 C 1,6 km/h (1 Bft)
19.09.2013 18:55 13,0 C 20,0 C 12,7 C 13,2 C 13,2 C 0,2 C 68 % 73 % 5 % 1012,6 hPa 0,0 l/m 1,4 km/h (1 Bft) S 180 0 min 0,0 UV-I 7,2 C 13,2 C 2,4 km/h (1 Bft)
19.09.2013 19:00 12,9 C 20,0 C 12,4 C 12,8 C 12,5 C 0,0 C 69 % 74 % 0 % 1012,6 hPa 0,0 l/m 1,0 km/h (0 Bft) SW 225 0 min 0,0 UV-I 7,4 C 12,5 C 1,9 km/h (1 Bft)
19.09.2013 19:05 12,6 C 20,1 C 12,2 C 12,4 C 12,1 C 0,0 C 69 % 74 % 0 % 1012,6 hPa 0,0 l/m 1,6 km/h (1 Bft) W 270 0 min 0,0 UV-I 7,1 C 12,1 C 2,4 km/h (1 Bft)
19.09.2013 19:10 12,5 C 20,1 C 12,1 C 12,3 C 11,8 C 0,0 C 69 % 74 % 0 % 1012,8 hPa 0,0 l/m 2,1 km/h (1 Bft) NW 315 0 min 0,0 UV-I 7,0 C 11,8 C 4,3 km/h (1 Bft)
19.09.2013 19:15 12,3 C 20,1 C 12,0 C 12,0 C 11,3 C 0,0 C 70 % 75 % 0 % 1012,8 hPa 0,0 l/m 1,6 km/h (1 Bft) S 180 0 min 0,0 UV-I 7,0 C 11,3 C 2,6 km/h (1 Bft)
19.09.2013 19:20 12,1 C 20,1 C 11,7 C 11,6 C 10,7 C 0,0 C 71 % 75 % 0 % 1012,8 hPa 0,0 l/m 0,3 km/h (0 Bft) S 180 0 min 0,0 UV-I 7,0 C 10,7 C 3,9 km/h (1 Bft)
19.09.2013 19:25 11,9 C 20,1 C 11,6 C 11,4 C 10,4 C 0,0 C 71 % 76 % 0 % 1012,8 hPa 0,0 l/m 0,5 km/h (0 Bft) W-NW 292 0 min 0,0 UV-I 6,8 C 10,4 C 0,0 km/h (0 Bft)
19.09.2013 19:30 11,8 C 20,1 C 11,4 C 11,3 C 10,2 C 0,0 C 72 % 77 % 0 % 1012,4 hPa 0,0 l/m 0,6 km/h (0 Bft) W-SW 247 0 min 0,0 UV-I 6,9 C 10,2 C 3,1 km/h (1 Bft)
19.09.2013 19:35 11,5 C 20,1 C 11,3 C 11,0 C 10,0 C 0,0 C 73 % 77 % 0 % 1012,4 hPa 0,0 l/m 0,3 km/h (0 Bft) S 180 0 min 0,0 UV-I 6,8 C 10,0 C 0,0 km/h (0 Bft)
19.09.2013 19:40 11,3 C 20,1 C 11,1 C 10,8 C 9,8 C 0,0 C 73 % 77 % 0 % 1012,4 hPa 0,0 l/m 0,2 km/h (0 Bft) W 270 0 min 0,0 UV-I 6,6 C 9,8 C 0,0 km/h (0 Bft)
19.09.2013 19:45 11,1 C 20,2 C 10,9 C 10,6 C 9,5 C 0,0 C 74 % 77 % 0 % 1012,4 hPa 0,0 l/m 0,0 km/h (0 Bft) SO 135 0 min 0,0 UV-I 6,6 C 9,5 C 0,0 km/h (0 Bft)
19.09.2013 19:50 11,0 C 20,2 C 10,6 C 10,5 C 9,4 C 0,0 C 75 % 78 % 0 % 1012,9 hPa 0,0 l/m 0,0 km/h (0 Bft) N-NW 337 0 min 0,0 UV-I 6,7 C 9,4 C 0,0 km/h (0 Bft)
19.09.2013 19:55 10,8 C 20,2 C 10,7 C 10,3 C 9,3 C 0,0 C 76 % 79 % 0 % 1012,9 hPa 0,0 l/m 0,2 km/h (0 Bft) S-SW 202 0 min 0,0 UV-I 6,7 C 9,3 C 0,0 km/h (0 Bft)
19.09.2013 20:00 10,6 C 20,1 C 10,7 C 10,2 C 9,5 C 0,0 C 76 % 79 % 0 % 1012,9 hPa 0,0 l/m 0,3 km/h (0 Bft) W-SW 247 0 min 0,0 UV-I 6,5 C 9,5 C 0,0 km/h (0 Bft)
19.09.2013 20:10 10,5 C 20,2 C 10,7 C 10,2 C 9,7 C 0,0 C 77 % 79 % 0 % 1013,2 hPa 0,0 l/m 0,2 km/h (0 Bft) O-SO 112 0 min 0,0 UV-I 6,6 C 9,7 C 0,0 km/h (0 Bft)
19.09.2013 20:15 10,5 C 20,2 C 10,7 C 10,3 C 9,8 C 0,0 C 78 % 79 % 0 % 1013,2 hPa 0,0 l/m 0,3 km/h (0 Bft) W-SW 247 0 min 0,0 UV-I 6,8 C 9,8 C 2,1 km/h (1 Bft)
19.09.2013 20:20 10,5 C 20,1 C 10,7 C 10,3 C 10,0 C 0,0 C 78 % 80 % 0 % 1013,2 hPa 0,0 l/m 0,5 km/h (0 Bft) W 270 0 min 0,0 UV-I 6,8 C 10,0 C 0,0 km/h (0 Bft)
19.09.2013 20:25 10,4 C 20,1 C 10,6 C 10,3 C 10,2 C 0,0 C 78 % 80 % 0 % 1013,2 hPa 0,0 l/m 0,3 km/h (0 Bft) S 180 0 min 0,0 UV-I 6,7 C 10,2 C 0,0 km/h (0 Bft)
19.09.2013 20:30 10,5 C 20,1 C 10,7 C 10,4 C 10,2 C 0,0 C 79 % 80 % 0 % 1013,8 hPa 0,0 l/m 0,0 km/h (0 Bft) W-NW 292 0 min 0,0 UV-I 7,0 C 10,2 C 0,0 km/h (0 Bft)
19.09.2013 20:35 10,5 C 20,1 C 10,9 C 10,5 C 10,4 C 0,0 C 79 % 80 % 0 % 1013,8 hPa 0,0 l/m 0,3 km/h (0 Bft) W-SW 247 0 min 0,0 UV-I 7,0 C 10,4 C 2,7 km/h (1 Bft)
19.09.2013 20:40 10,7 C 20,1 C 11,1 C 10,8 C 10,8 C 0,1 C 79 % 80 % 0 % 1013,8 hPa 0,0 l/m 1,6 km/h (1 Bft) S 180 0 min 0,0 UV-I 7,2 C 10,8 C 2,1 km/h (1 Bft)
19.09.2013 20:45 10,9 C 20,1 C 11,1 C 10,9 C 10,9 C 0,0 C 78 % 80 % 0 % 1013,8 hPa 0,0 l/m 1,8 km/h (1 Bft) W 270 0 min 0,0 UV-I 7,2 C 10,9 C 0,0 km/h (0 Bft)
19.09.2013 20:50 10,9 C 20,1 C 11,1 C 11,0 C 11,0 C 0,1 C 78 % 80 % 0 % 1013,2 hPa 0,0 l/m 1,4 km/h (1 Bft) NW 315 0 min 0,0 UV-I 7,2 C 11,0 C 7,2 km/h (2 Bft)
19.09.2013 20:58 11,1 C 20,1 C 11,2 C 11,1 C 11,0 C 0,0 C 79 % 80 % 0 % 1013,2 hPa 0,0 l/m 0,6 km/h (0 Bft) SW 225 0 min 0,0 UV-I 7,6 C 11,0 C 0,0 km/h (0 Bft)
19.09.2013 20:59 11,1 C 20,1 C 11,2 C 11,1 C 11,0 C 0,0 C 79 % 80 % 0 % 1013,2 hPa 0,0 l/m 0,6 km/h (0 Bft) SW 225 0 min 0,0 UV-I 7,6 C 11,0 C 0,0 km/h (0 Bft)
19.09.2013 21:00 11,1 C 20,1 C 11,2 C 11,1 C 11,0 C 0,0 C 79 % 80 % 0 % 1013,2 hPa 0,0 l/m 0,6 km/h (0 Bft) SW 225 0 min 0,0 UV-I 7,6 C 11,0 C 0,0 km/h (0 Bft)
19.09.2013 21:01 11,1 C 20,1 C 11,2 C 11,1 C 11,0 C 0,0 C 79 % 80 % 0 % 1013,2 hPa 0,0 l/m 0,6 km/h (0 Bft) SW 225 0 min 0,0 UV-I 7,6 C 11,0 C 0,0 km/h (0 Bft)
19.09.2013 21:02 11,0 C 20,2 C 11,2 C 11,0 C 10,9 C 0,0 C 79 % 80 % 0 % 1013,2 hPa 0,0 l/m 0,3 km/h (0 Bft) W 270 0 min 0,0 UV-I 7,5 C 10,9 C 0,0 km/h (0 Bft)
19.09.2013 21:05 11,0 C 20,2 C 11,2 C 11,0 C 10,9 C 0,0 C 79 % 80 % 0 % 1013,2 hPa 0,0 l/m 0,3 km/h (0 Bft) W 270 0 min 0,0 UV-I 7,5 C 10,9 C 0,0 km/h (0 Bft)
19.09.2013 21:07 11,0 C 20,2 C 11,2 C 10,9 C 10,8 C 0,0 C 79 % 80 % 0 % 1013,4 hPa 0,0 l/m 0,3 km/h (0 Bft) NW 315 0 min 0,0 UV-I 7,5 C 10,8 C 0,0 km/h (0 Bft)
19.09.2013 21:12 11,1 C 20,2 C 11,1 C 11,0 C 10,8 C 0,0 C 79 % 80 % 0 % 1013,4 hPa 0,0 l/m 0,3 km/h (0 Bft) S 180 0 min 0,0 UV-I 7,6 C 10,8 C 0,0 km/h (0 Bft)
19.09.2013 21:17 11,1 C 20,2 C 11,1 C 11,0 C 10,7 C 0,0 C 79 % 80 % 0 % 1013,4 hPa 0,0 l/m 0,2 km/h (0 Bft) S-SW 202 0 min 0,0 UV-I 7,6 C 10,7 C 0,0 km/h (0 Bft)
19.09.2013 21:22 11,1 C 20,2 C 11,0 C 10,9 C 10,6 C 0,0 C 80 % 81 % 0 % 1013,4 hPa 0,0 l/m 0,0 km/h (0 Bft) W-SW 247 0 min 0,0 UV-I 7,8 C 10,6 C 0,0 km/h (0 Bft)
19.09.2013 21:24 11,1 C 20,2 C 11,0 C 10,9 C 10,6 C 0,0 C 80 % 81 % 0 % 1013,4 hPa 0,0 l/m 0,0 km/h (0 Bft) W-SW 247 0 min 0,0 UV-I 7,8 C 10,6 C 0,0 km/h (0 Bft)
19.09.2013 21:30 11,0 C 20,2 C 11,0 C 10,9 C 10,6 C 0,0 C 80 % 81 % 0 % 1013,8 hPa 0,0 l/m 0,0 km/h (0 Bft) S 180 0 min 0,0 UV-I 7,7 C 10,6 C 0,0 km/h (0 Bft)
19.09.2013 21:35 10,9 C 20,2 C 11,1 C 10,8 C 10,6 C 0,0 C 80 % 81 % 0 % 1013,8 hPa 0,0 l/m 0,0 km/h (0 Bft) W-SW 247 0 min 0,0 UV-I 7,6 C 10,6 C 0,0 km/h (0 Bft)
19.09.2013 21:40 10,9 C 20,2 C 11,0 C 10,8 C 10,6 C 0,0 C 80 % 81 % 0 % 1013,8 hPa 0,0 l/m 0,2 km/h (0 Bft) NW 315 0 min 0,0 UV-I 7,6 C 10,6 C 0,0 km/h (0 Bft)
19.09.2013 21:45 10,9 C 20,2 C 11,0 C 10,8 C 10,6 C 0,0 C 80 % 81 % 0 % 1013,8 hPa 0,0 l/m 0,2 km/h (0 Bft) W-SW 247 0 min 0,0 UV-I 7,6 C 10,6 C 1,9 km/h (1 Bft)
19.09.2013 21:50 10,9 C 20,2 C 11,1 C 10,8 C 10,7 C 0,0 C 80 % 81 % 0 % 1013,8 hPa 0,0 l/m 0,0 km/h (0 Bft) W-SW 247 0 min 0,0 UV-I 7,6 C 10,7 C 0,0 km/h (0 Bft)
19.09.2013 21:55 10,9 C 20,2 C 11,1 C 10,9 C 10,8 C 0,0 C 80 % 81 % 0 % 1013,8 hPa 0,0 l/m 0,3 km/h (0 Bft) S-SO 157 0 min 0,0 UV-I 7,6 C 10,8 C 0,0 km/h (0 Bft)
19.09.2013 22:00 10,9 C 20,2 C 11,1 C 10,9 C 10,8 C 0,0 C 80 % 81 % 0 % 1013,8 hPa 0,0 l/m 0,3 km/h (0 Bft) SW 225 0 min 0,0 UV-I 7,6 C 10,8 C 2,9 km/h (1 Bft)
19.09.2013 22:05 11,0 C 20,2 C 11,1 C 10,9 C 10,8 C 0,0 C 81 % 81 % 0 % 1013,8 hPa 0,0 l/m 0,2 km/h (0 Bft) S-SO 157 0 min 0,0 UV-I 7,9 C 10,8 C 0,0 km/h (0 Bft)
19.09.2013 22:10 11,1 C 20,2 C 11,1 C 11,0 C 10,8 C 0,0 C 81 % 81 % 0 % 1013,3 hPa 0,0 l/m 0,2 km/h (0 Bft) N 360 0 min 0,0 UV-I 8,0 C 10,8 C 0,0 km/h (0 Bft)
19.09.2013 22:15 11,1 C 20,2 C 11,1 C 11,0 C 10,8 C 0,0 C 81 % 81 % 0 % 1013,3 hPa 0,0 l/m 0,0 km/h (0 Bft) S-SO 157 0 min 0,0 UV-I 8,0 C 10,8 C 0,0 km/h (0 Bft)
19.09.2013 22:20 11,1 C 20,2 C 11,1 C 11,0 C 10,8 C 0,0 C 81 % 81 % 0 % 1013,3 hPa 0,0 l/m 0,3 km/h (0 Bft) NO 45 0 min 0,0 UV-I 8,0 C 10,8 C 0,0 km/h (0 Bft)
19.09.2013 22:25 11,1 C 20,2 C 11,1 C 11,0 C 10,8 C 0,0 C 81 % 82 % 0 % 1013,3 hPa 0,0 l/m 0,3 km/h (0 Bft) N-NO 22 0 min 0,0 UV-I 8,0 C 10,8 C 0,0 km/h (0 Bft)
19.09.2013 22:30 11,1 C 20,2 C 11,1 C 11,0 C 10,8 C 0,0 C 81 % 82 % 0 % 1013,6 hPa 0,0 l/m 0,3 km/h (0 Bft) O-SO 112 0 min 0,0 UV-I 8,0 C 10,8 C 0,0 km/h (0 Bft)
19.09.2013 22:35 11,1 C 20,2 C 11,0 C 11,0 C 10,7 C 0,0 C 81 % 81 % 0 % 1013,6 hPa 0,0 l/m 0,2 km/h (0 Bft) SW 225 0 min 0,0 UV-I 8,0 C 10,7 C 0,0 km/h (0 Bft)
19.09.2013 22:40 10,9 C 20,2 C 11,1 C 10,8 C 10,6 C 0,0 C 81 % 82 % 0 % 1013,6 hPa 0,0 l/m 0,0 km/h (0 Bft) W 270 0 min 0,0 UV-I 7,8 C 10,6 C 0,0 km/h (0 Bft)
19.09.2013 22:45 10,9 C 20,2 C 11,1 C 10,8 C 10,6 C 0,0 C 81 % 82 % 0 % 1013,6 hPa 0,0 l/m 0,2 km/h (0 Bft) S 180 0 min 0,0 UV-I 7,8 C 10,6 C 0,0 km/h (0 Bft)
19.09.2013 22:50 10,9 C 20,2 C 11,1 C 10,8 C 10,6 C 0,0 C 81 % 82 % 0 % 1014,1 hPa 0,0 l/m 0,0 km/h (0 Bft) SW 225 0 min 0,0 UV-I 7,8 C 10,6 C 0,0 km/h (0 Bft)
19.09.2013 22:55 10,9 C 20,2 C 11,1 C 10,8 C 10,6 C 0,0 C 81 % 82 % 0 % 1014,1 hPa 0,0 l/m 0,2 km/h (0 Bft) O-SO 112 0 min 0,0 UV-I 7,8 C 10,6 C 0,0 km/h (0 Bft)
19.09.2013 23:00 10,9 C 20,2 C 11,0 C 10,8 C 10,6 C 0,0 C 81 % 82 % 0 % 1014,1 hPa 0,0 l/m 0,2 km/h (0 Bft) S-SO 157 0 min 0,0 UV-I 7,8 C 10,6 C 0,0 km/h (0 Bft)
19.09.2013 23:05 10,9 C 20,2 C 11,1 C 10,8 C 10,6 C 0,0 C 81 % 82 % 0 % 1014,1 hPa 0,0 l/m 0,2 km/h (0 Bft) O-SO 112 0 min 0,0 UV-I 7,8 C 10,6 C 0,0 km/h (0 Bft)
19.09.2013 23:10 10,8 C 20,2 C 11,1 C 10,7 C 10,6 C 0,0 C 81 % 82 % 0 % 1013,6 hPa 0,0 l/m 0,2 km/h (0 Bft) S-SO 157 0 min 0,0 UV-I 7,7 C 10,6 C 0,0 km/h (0 Bft)
19.09.2013 23:15 10,8 C 20,2 C 10,9 C 10,7 C 10,6 C 0,0 C 81 % 82 % 0 % 1013,6 hPa 0,0 l/m 0,2 km/h (0 Bft) S 180 0 min 0,0 UV-I 7,7 C 10,6 C 0,0 km/h (0 Bft)
19.09.2013 23:20 10,8 C 20,2 C 10,9 C 10,7 C 10,6 C 0,0 C 81 % 82 % 0 % 1013,6 hPa 0,0 l/m 0,5 km/h (0 Bft) S 180 0 min 0,0 UV-I 7,7 C 10,6 C 5,0 km/h (1 Bft)
19.09.2013 23:25 10,8 C 20,2 C 10,9 C 10,7 C 10,6 C 0,0 C 81 % 82 % 0 % 1013,6 hPa 0,0 l/m 0,5 km/h (0 Bft) SO 135 0 min 0,0 UV-I 7,7 C 10,6 C 0,0 km/h (0 Bft)
19.09.2013 23:30 10,9 C 20,2 C 10,8 C 10,8 C 10,6 C 0,0 C 81 % 82 % 0 % 1013,2 hPa 0,0 l/m 0,3 km/h (0 Bft) S-SO 157 0 min 0,0 UV-I 7,8 C 10,6 C 0,0 km/h (0 Bft)
19.09.2013 23:35 10,8 C 20,2 C 10,9 C 10,7 C 10,6 C 0,0 C 81 % 82 % 0 % 1013,2 hPa 0,0 l/m 0,5 km/h (0 Bft) SW 225 0 min 0,0 UV-I 7,7 C 10,6 C 0,0 km/h (0 Bft)
19.09.2013 23:40 10,8 C 20,1 C 10,9 C 10,7 C 10,6 C 0,0 C 82 % 82 % 0 % 1013,2 hPa 0,0 l/m 0,5 km/h (0 Bft) W-SW 247 0 min 0,0 UV-I 7,9 C 10,6 C 0,0 km/h (0 Bft)
19.09.2013 23:45 10,8 C 20,1 C 10,9 C 10,7 C 10,6 C 0,0 C 82 % 82 % 0 % 1013,2 hPa 0,0 l/m 0,6 km/h (0 Bft) SO 135 0 min 0,0 UV-I 7,9 C 10,6 C 2,1 km/h (1 Bft)
19.09.2013 23:50 10,8 C 20,1 C 11,0 C 10,8 C 10,7 C 0,0 C 82 % 82 % 0 % 1013,4 hPa 0,0 l/m 0,6 km/h (0 Bft) W-SW 247 0 min 0,0 UV-I 7,9 C 10,7 C 0,0 km/h (0 Bft)
19.09.2013 23:55 10,9 C 20,1 C 11,0 C 10,8 C 10,7 C 0,0 C 82 % 82 % 0 % 1013,4 hPa 0,0 l/m 0,3 km/h (0 Bft) SO 135 0 min 0,0 UV-I 7,9 C 10,7 C 0,0 km/h (0 Bft)
_ Min-Zeit 04:10 09:30 03:30 03:35 03:35 00:00 15:40 16:40 00:00 00:00 - 02:15 - - - 00:00 04:10 03:35 00:45
Minimum _ 6,1 C 19,7 C 7,6 C 6,3 C 6,3 C 0,0 C 60 % 65 % 0 % 1004,6 hPa - 0,0 km/h (0 Bft) - - - 0,0 UV-I 4,3 C 6,3 C 0,0 km/h (0 Bft)
_ Max-Zeit 15:35 02:10 16:40 16:35 16:35 16:30 05:00 04:10 12:40 22:50 00:00 14:30 - - 07:05 00:00 12:40 16:35 14:40
Maximum _ 15,6 C 20,5 C 15,9 C 20,4 C 20,4 C 5,0 C 90 % 85 % 100 % 1014,1 hPa 0,0 l/m 9,3 km/h
S (2 Bft)
- - 5 min 0,0 UV-I 9,0 C 20,4 C 22,2 km/h
W-SW (4 Bft)
Durchschnitt _ 10,5 C 20,0 C 11,1 C 11,5 C 11,4 C 1,1 C 78 % 79 % 24 % 1010,2 hPa #0,0 l/m 3,2 km/h (1 Bft) W-SW - #3:20 h 0,0 UV-I 6,8 C 11,4 C 4,5 km/h (1 Bft)
2013 www.wetterstation-wechselburg.de